Location: Beekmeers
(50.8953°N, 3.6968°E)
Time: 16:53:09
(UTC+00:00)

COBE Rocket - Pass Details

Date: 03 August 2024
Orbit: 676 x 777 km, 97.1° (Epoch: 06 September)

Event Time Altitude Azimuth Distance (km) Brightness Sun altitude
Rises 23:44:34 0° 23° (NNE) 3,094 8.2 -21.9°
Reaches altitude 10° 23:47:22 10° 40° (NE) 2,156 7.0 -21.9°
Maximum altitude 23:50:54 21° 89° (E) 1,534 5.6 -21.9°
Enters shadow 23:51:59 19° 108° (ESE) 1,595 5.5 -21.9°
